• In Germany
  • List of Countries
  • For 7 days
  • Water Temperature
  • Satellite Maps
  • Weather Map
  • Weather Widgets
  • user-avatar
    Login

    Hourly Weather Samos

    Today, 24 October, Wednesday

    Time Temperature Precipitation Wind Pressure Humidity
    00:00 +16°C° 0.1 mm 3 mps 717 mmHg 67%
    01:00 +16°C° 0.1 mm 3 mps 717 mmHg 68%
    02:00 +14°C° 0.1 mm 3 mps 717 mmHg 69%
    03:00 +14°C° 0 mm 3 mps 716 mmHg 70%
    04:00 +15°C° 0 mm 2 mps 716 mmHg 70%
    05:00 +15°C° 0 mm 2 mps 716 mmHg 71%
    06:00 +16°C° 0 mm 2 mps 716 mmHg 68%
    07:00 +16°C° 0 mm 2 mps 716 mmHg 65%
    08:00 +17°C° 0 mm 3 mps 716 mmHg 61%
    09:00 +19°C° 0 mm 2 mps 715 mmHg 56%
    10:00 +21°C° 0 mm 2 mps 715 mmHg 50%
    11:00 +24°C° 0 mm 2 mps 715 mmHg 44%
    12:00 +24°C° 0 mm 2 mps 715 mmHg 45%
    13:00 +24°C° 0 mm 3 mps 715 mmHg 45%
    14:00 +24°C° 0 mm 3 mps 714 mmHg 46%
    15:00 +22°C° 0.1 mm 3 mps 714 mmHg 52%
    16:00 +21°C° 0.1 mm 3 mps 714 mmHg 57%
    17:00 +19°C° 0.1 mm 3 mps 713 mmHg 63%
    18:00 +18°C° 0.1 mm 3 mps 713 mmHg 69%
    19:00 +17°C° 0.1 mm 3 mps 713 mmHg 74%
    20:00 +16°C° 0.1 mm 3 mps 714 mmHg 80%
    21:00 +16°C° 0.3 mm 3 mps 714 mmHg 82%
    22:00 +14°C° 0.3 mm 3 mps 714 mmHg 84%
    23:00 +14°C° 0.3 mm 3 mps 714 mmHg 87%

    Tomorrow, 25 October, Thursday

    Time Temperature Precipitation Wind Pressure Humidity
    00:00 +14°C° 0.2 mm 4 mps 714 mmHg 88%
    01:00 +13°C° 0.2 mm 4 mps 714 mmHg 89%
    02:00 +13°C° 0.2 mm 5 mps 713 mmHg 89%
    03:00 +13°C° 0 mm 5 mps 714 mmHg 89%
    04:00 +11°C° 0 mm 6 mps 714 mmHg 89%
    05:00 +11°C° 0 mm 7 mps 714 mmHg 89%
    06:00 +11°C° 0 mm 8 mps 715 mmHg 81%
    07:00 +9°C° 0 mm 10 mps 715 mmHg 73%
    08:00 +9°C° 0 mm 11 mps 716 mmHg 65%
    09:00 +11°C° 0 mm 11 mps 717 mmHg 56%
    10:00 +11°C° 0 mm 10 mps 717 mmHg 47%
    11:00 +12°C° 0 mm 10 mps 718 mmHg 38%
    12:00 +12°C° 0 mm 10 mps 718 mmHg 33%
    13:00 +12°C° 0 mm 10 mps 718 mmHg 28%
    14:00 +13°C° 0 mm 10 mps 718 mmHg 23%
    15:00 +12°C° 0 mm 10 mps 719 mmHg 25%
    16:00 +11°C° 0 mm 10 mps 719 mmHg 26%
    17:00 +10°C° 0 mm 9 mps 719 mmHg 27%
    18:00 +8°C° 0 mm 9 mps 720 mmHg 30%
    19:00 +7°C° 0 mm 9 mps 720 mmHg 33%
    20:00 +6°C° 0 mm 8 mps 721 mmHg 36%
    21:00 +5°C° 0 mm 8 mps 721 mmHg 38%
    22:00 +5°C° 0 mm 7 mps 721 mmHg 40%
    23:00 +4°C° 0 mm 7 mps 722 mmHg 42%

    Day after tomorrow, 26 October, Friday

    Time Temperature Precipitation Wind Pressure Humidity
    00:00 +4°C° 0 mm 7 mps 722 mmHg 43%
    01:00 +4°C° 0 mm 7 mps 722 mmHg 44%
    02:00 +3°C° 0 mm 6 mps 722 mmHg 46%
    03:00 +3°C° 0 mm 6 mps 722 mmHg 46%
    04:00 +3°C° 0 mm 6 mps 722 mmHg 47%
    05:00 +3°C° 0 mm 5 mps 722 mmHg 48%
    06:00 +5°C° 0 mm 5 mps 722 mmHg 46%
    07:00 +6°C° 0 mm 4 mps 723 mmHg 43%
    08:00 +7°C° 0 mm 4 mps 723 mmHg 41%
    09:00 +10°C° 0 mm 4 mps 723 mmHg 35%
    10:00 +13°C° 0 mm 4 mps 723 mmHg 28%
    11:00 +16°C° 0 mm 3 mps 724 mmHg 22%
    12:00 +17°C° 0 mm 3 mps 724 mmHg 22%
    13:00 +18°C° 0 mm 3 mps 723 mmHg 21%
    14:00 +19°C° 0 mm 3 mps 723 mmHg 21%
    15:00 +18°C° 0 mm 3 mps 723 mmHg 25%
    16:00 +17°C° 0 mm 4 mps 723 mmHg 28%
    17:00 +15°C° 0 mm 4 mps 723 mmHg 32%
    18:00 +14°C° 0 mm 3 mps 723 mmHg 34%
    19:00 +12°C° 0 mm 3 mps 724 mmHg 37%
    20:00 +11°C° 0 mm 3 mps 724 mmHg 39%
    21:00 +11°C° 0 mm 3 mps 724 mmHg 40%
    22:00 +12°C° 0 mm 2 mps 724 mmHg 40%
    23:00 +10°C° 0 mm 2 mps 724 mmHg 41%

    27 October, Saturday

    Time Temperature Precipitation Wind Pressure Humidity
    00:00 +10°C° 0 mm 2 mps 724 mmHg 41%
    01:00 +10°C° 0 mm 2 mps 724 mmHg 41%
    02:00 +10°C° 0 mm 1 mps 724 mmHg 41%
    03:00 +9°C° 0 mm 2 mps 724 mmHg 41%
    04:00 +9°C° 0 mm 2 mps 724 mmHg 40%
    05:00 +9°C° 0 mm 2 mps 723 mmHg 40%
    06:00 +10°C° 0 mm 2 mps 724 mmHg 38%
    07:00 +12°C° 0 mm 2 mps 724 mmHg 37%
    08:00 +12°C° 0 mm 3 mps 724 mmHg 35%
    09:00 +14°C° 0 mm 3 mps 724 mmHg 31%
    10:00 +18°C° 0 mm 3 mps 725 mmHg 27%
    11:00 +20°C° 0 mm 4 mps 725 mmHg 23%
    12:00 +21°C° 0 mm 4 mps 725 mmHg 24%
    13:00 +21°C° 0 mm 4 mps 724 mmHg 25%
    14:00 +22°C° 0 mm 4 mps 724 mmHg 26%
    15:00 +20°C° 0 mm 4 mps 724 mmHg 33%
    16:00 +19°C° 0 mm 4 mps 724 mmHg 40%
    17:00 +17°C° 0 mm 4 mps 724 mmHg 46%
    18:00 +15°C° 0 mm 4 mps 724 mmHg 52%
    19:00 +14°C° 0 mm 4 mps 724 mmHg 57%
    20:00 +13°C° 0 mm 4 mps 724 mmHg 62%
    21:00 +12°C° 0 mm 4 mps 724 mmHg 63%
    22:00 +12°C° 0 mm 4 mps 724 mmHg 64%
    23:00 +12°C° 0 mm 4 mps 724 mmHg 65%

    28 October, Sunday

    Time Temperature Precipitation Wind Pressure Humidity
    00:00 +12°C° 0 mm 4 mps 724 mmHg 66%
    01:00 +11°C° 0 mm 4 mps 724 mmHg 66%
    02:00 +11°C° 0 mm 4 mps 724 mmHg 67%
    03:00 +11°C° 0 mm 4 mps 724 mmHg 68%
    04:00 +11°C° 0 mm 4 mps 724 mmHg 68%
    05:00 +11°C° 0 mm 4 mps 724 mmHg 69%
    06:00 +11°C° 0 mm 4 mps 724 mmHg 66%
    07:00 +12°C° 0 mm 4 mps 724 mmHg 63%
    08:00 +13°C° 0 mm 4 mps 725 mmHg 60%
    09:00 +15°C° 0 mm 5 mps 725 mmHg 55%
    10:00 +19°C° 0 mm 5 mps 725 mmHg 49%
    11:00 +21°C° 0 mm 5 mps 725 mmHg 44%
    12:00 +21°C° 0 mm 5 mps 724 mmHg 41%
    13:00 +22°C° 0 mm 5 mps 724 mmHg 38%
    14:00 +23°C° 0 mm 5 mps 724 mmHg 35%
    15:00 +21°C° 0 mm 5 mps 723 mmHg 42%
    16:00 +20°C° 0 mm 4 mps 723 mmHg 48%
    17:00 +18°C° 0 mm 4 mps 723 mmHg 55%
    18:00 +17°C° 0 mm 4 mps 723 mmHg 62%
    19:00 +15°C° 0 mm 4 mps 724 mmHg 70%
    20:00 +14°C° 0 mm 4 mps 724 mmHg 78%
    21:00 +13°C° 0 mm 4 mps 724 mmHg 79%
    22:00 +13°C° 0 mm 4 mps 724 mmHg 80%
    23:00 +13°C° 0 mm 4 mps 724 mmHg 81%

    29 October, Monday

    Time Temperature Precipitation Wind Pressure Humidity
    00:00 +12°C° 0 mm 4 mps 724 mmHg 81%
    01:00 +12°C° 0 mm 4 mps 723 mmHg 80%
    02:00 +12°C° 0 mm 4 mps 723 mmHg 80%
    03:00 +12°C° 0 mm 4 mps 723 mmHg 79%
    04:00 +11°C° 0 mm 4 mps 723 mmHg 78%
    05:00 +11°C° 0 mm 4 mps 723 mmHg 78%
    06:00 +12°C° 0 mm 4 mps 723 mmHg 72%
    07:00 +13°C° 0 mm 4 mps 723 mmHg 67%
    08:00 +14°C° 0 mm 4 mps 723 mmHg 62%
    09:00 +17°C° 0 mm 4 mps 723 mmHg 54%
    10:00 +19°C° 0 mm 5 mps 723 mmHg 45%
    11:00 +22°C° 0 mm 5 mps 723 mmHg 36%
    12:00 +22°C° 0 mm 5 mps 723 mmHg 35%
    13:00 +23°C° 0 mm 5 mps 723 mmHg 34%
    14:00 +23°C° 0 mm 5 mps 723 mmHg 32%
    15:00 +22°C° 0 mm 5 mps 722 mmHg 39%
    16:00 +20°C° 0 mm 4 mps 722 mmHg 46%
    17:00 +19°C° 0 mm 4 mps 722 mmHg 53%
    18:00 +18°C° 0 mm 4 mps 722 mmHg 58%
    19:00 +15°C° 0 mm 4 mps 723 mmHg 63%
    20:00 +14°C° 0 mm 4 mps 723 mmHg 68%
    21:00 +14°C° 0 mm 4 mps 723 mmHg 66%
    22:00 +14°C° 0 mm 4 mps 723 mmHg 65%
    23:00 +13°C° 0 mm 4 mps 723 mmHg 63%

    30 October, Tuesday

    Time Temperature Precipitation Wind Pressure Humidity
    00:00 +13°C° 0 mm 4 mps 722 mmHg 60%
    01:00 +13°C° 0 mm 4 mps 722 mmHg 57%
    02:00 +13°C° 0 mm 4 mps 722 mmHg 55%
    03:00 +13°C° 0 mm 4 mps 722 mmHg 53%
    04:00 +13°C° 0 mm 4 mps 722 mmHg 52%
    05:00 +12°C° 0 mm 4 mps 722 mmHg 51%
    06:00 +13°C° 0 mm 5 mps 722 mmHg 47%
    07:00 +14°C° 0 mm 5 mps 722 mmHg 44%
    08:00 +15°C° 0 mm 5 mps 722 mmHg 41%
    09:00 +17°C° 0 mm 5 mps 722 mmHg 36%
    10:00 +21°C° 0 mm 6 mps 721 mmHg 31%
    11:00 +23°C° 0 mm 6 mps 721 mmHg 26%
    12:00 +24°C° 0 mm 6 mps 721 mmHg 26%
    13:00 +24°C° 0 mm 7 mps 721 mmHg 25%
    14:00 +26°C° 0 mm 7 mps 720 mmHg 25%
    15:00 +23°C° 0 mm 7 mps 720 mmHg 30%
    16:00 +22°C° 0 mm 7 mps 720 mmHg 36%
    17:00 +20°C° 0 mm 7 mps 720 mmHg 41%
    18:00 +18°C° 0 mm 7 mps 720 mmHg 43%
    19:00 +18°C° 0 mm 7 mps 721 mmHg 45%
    20:00 +17°C° 0 mm 7 mps 721 mmHg 47%
    21:00 +17°C° 0 mm 6 mps 721 mmHg 49%
    22:00 +16°C° 0 mm 6 mps 722 mmHg 51%
    23:00 +16°C° 0 mm 6 mps 722 mmHg 53%
    Show more